GW2827 Weather Reports


Display with metric or nautical units.
time (UTC)temp
F
wind
direction
speed
MPH
gust
MPH
rain 1hr
in
rain 24hr
in
rain mn
in
humidity
%
barometer
mb
20260507054556 38 0 0.0 0.0 0.04 0.18 0.18 78 1015.2
20260507053121 38 0 0.0 0.0 0.04 0.17 0.17 77 1015.1
20260507051601 38 0 0.0 0.0 0.04 0.16 0.16 77 1015.0
20260507050100 38 0 0.0 1.0 0.07 0.15 0.15 76 1015.0
20260507044557 38 0 0.0 3.0 0.09 0.14 0.14 76 1015.0
20260507043057 38 128 0.0 3.0 0.09 0.13 0.13 76 1015.0
20260507041558 38 128 3.0 6.0 0.08 0.12 0.12 75 1015.2
20260507034556 40 128 6.0 19.0 0.02 0.05 0.05 75 1014.9
20260507033103 42 128 0.0 2.0 0.03 0.04 0.04 74 1014.3
20260507031558 43 128 0.0 2.0 0.04 0.04 0.04 74 1014.1
20260507030057 43 128 0.0 4.0 0.04 0.04 0.04 74 1014.0
20260507024601 42 128 0.0 4.0 0.03 0.03 0.03 74 1014.1
20260507023056 43 128 2.0 5.0 0.01 0.01 0.01 74 1013.9
20260507021557 44 128 4.0 7.0 0.00 0.00 0.00 74 1013.7
20260507020100 45 0 0.0 1.0 0.00 0.00 0.00 74 1013.6
20260507014603 44 128 0.0 1.0 0.00 0.00 0.00 73 1013.5
20260507013056 43 0 0.0 2.0 0.00 0.00 0.00 73 1013.5
20260507011558 43 128 3.0 8.0 0.00 0.00 0.00 73 1013.7
20260507010103 43 128 5.0 11.0 0.00 0.00 0.00 73 1013.7
20260507004611 45 128 1.0 4.0 0.00 0.00 0.00 73 1013.6
20260507003059 45 128 1.0 6.0 0.00 0.00 0.00 72 1013.5
20260507001556 44 127 2.0 4.0 0.00 0.00 0.00 72 1013.5
20260507000056 45 127 1.0 4.0 0.00 0.00 0.00 72 1013.5
20260506234557 44 127 2.0 5.0 0.00 0.00 0.00 72 1013.3
20260506233058 45 127 1.0 4.0 0.00 0.00 0.00 72 1013.4
20260506231553 45 127 2.0 6.0 0.00 0.00 0.00 72 1013.1
20260506230104 46 127 2.0 8.0 0.00 0.00 0.00 72 1013.1
20260506224552 45 127 3.0 11.0 0.00 0.00 0.00 72 1013.0
20260506223058 44 127 4.0 13.0 0.00 0.00 0.00 72 1012.9
20260506221557 44 127 4.0 11.0 0.00 0.00 0.00 73 1012.7
20260506220057 44 127 3.0 15.0 0.00 0.00 0.00 73 1012.8
20260506214603 47 127 6.0 12.0 0.00 0.00 0.00 73 1012.7
20260506213055 48 127 4.0 6.0 0.00 0.00 0.00 74 1012.4
20260506211600 47 127 2.0 5.0 0.00 0.00 0.00 74 1012.3
20260506210058 47 127 1.0 3.0 0.00 0.00 0.00 74 1012.2
20260506204559 48 127 1.0 5.0 0.00 0.00 0.00 75 1012.0
20260506203053 49 127 1.0 3.0 0.00 0.00 0.00 75 1011.9
20260506201556 47 127 1.0 4.0 0.00 0.00 0.00 75 1011.6
20260506200104 48 127 1.0 2.0 0.00 0.00 0.00 76 1011.6
20260506194605 48 127 1.0 3.0 0.00 0.00 0.00 76 1011.5
20260506193059 46 127 1.0 4.0 0.00 0.00 0.00 76 1011.5
20260506191606 46 127 1.0 4.0 0.00 0.00 0.00 76 1011.6
20260506190054 46 127 2.0 4.0 0.00 0.00 0.00 76 1011.6
20260506184601 45 127 1.0 3.0 0.00 0.00 0.00 76 1011.6
20260506183106 44 127 2.0 3.0 0.00 0.00 0.00 76 1011.5
20260506181604 43 0 1.0 3.0 0.00 0.00 0.00 76 1011.4
20260506180116 43 0 0.0 1.0 0.00 0.00 0.00 76 1011.3
20260506174559 42 0 0.0 2.0 0.00 0.00 0.00 75 1011.2
20260506173135 42 127 0.0 1.0 0.00 0.00 0.00 75 1011.2
20260506171603 41 128 0.0 1.0 0.00 0.00 0.00 75 1011.1
20260506170100 41 127 0.0 1.0 0.00 0.00 0.00 74 1011.0
20260506164553 41 0 0.0 1.0 0.00 0.00 0.00 74 1010.9
20260506163106 40 0 0.0 1.0 0.00 0.00 0.00 74 1010.8
20260506161558 39 0 0.0 1.0 0.00 0.00 0.00 73 1010.7
20260506160100 39 0 0.0 1.0 0.00 0.00 0.00 73 1010.7
20260506154558 38 0 0.0 0.0 0.00 0.00 0.00 73 1010.6
20260506153057 37 0 0.0 1.0 0.00 0.00 0.00 72 1010.5
20260506151558 37 127 0.0 0.0 0.00 0.00 0.00 72 1010.4
20260506150059 37 0 0.0 0.0 0.00 0.00 0.00 72 1010.4
20260506144606 37 0 0.0 0.0 0.00 0.00 0.00 71 1010.3
20260506143056 38 0 0.0 1.0 0.00 0.00 0.00 71 1010.2
20260506141553 37 0 0.0 0.0 0.00 0.00 0.00 71 1010.1
20260506140055 38 0 0.0 0.0 0.00 0.00 0.00 70 1010.1
20260506134605 38 0 0.0 0.0 0.00 0.00 0.00 70 1010.1
20260506133101 38 0 0.0 0.0 0.00 0.00 0.00 70 1010.0
20260506131556 38 0 0.0 1.0 0.00 0.00 0.00 69 1009.9
20260506130054 38 0 0.0 1.0 0.00 0.00 0.00 69 1009.8
20260506124555 38 128 0.0 1.0 0.00 0.00 0.00 68 1009.7
20260506123057 39 128 1.0 2.0 0.00 0.00 0.00 68 1009.7
20260506121554 39 127 0.0 2.0 0.00 0.00 0.00 68 1009.6
20260506120111 39 0 1.0 3.0 0.00 0.00 0.00 67 1009.6
20260506114557 38 127 1.0 2.0 0.00 0.00 0.00 66 1009.5
20260506113100 38 127 1.0 1.0 0.00 0.00 0.00 66 1009.6
20260506111555 39 127 1.0 2.0 0.00 0.00 0.00 65 1009.6
20260506110057 39 0 0.0 3.0 0.00 0.00 0.00 65 1009.5
20260506104558 39 127 0.0 2.0 0.00 0.00 0.00 64 1009.4
20260506103055 38 0 0.0 1.0 0.00 0.00 0.00 63 1009.4
20260506101557 38 127 1.0 2.0 0.00 0.00 0.00 63 1009.4
20260506094613 40 127 3.0 9.0 0.00 0.00 0.00 63 1009.1
20260506093053 41 127 4.0 12.0 0.00 0.00 0.00 63 1009.1
20260506091556 41 127 5.0 13.0 0.00 0.00 0.00 63 1009.0
20260506090053 42 129 2.0 7.0 0.00 0.00 0.00 63 1009.0
20260506084558 43 129 1.0 4.0 0.00 0.00 0.00 63 1008.7
20260506083059 42 129 1.0 3.0 0.00 0.00 0.00 63 1008.6
20260506081553 43 0 0.0 3.0 0.00 0.00 0.00 63 1008.5
20260506080107 43 0 1.0 3.0 0.00 0.00 0.00 62 1008.4
20260506073107 42 129 4.0 11.0 0.00 0.00 0.00 62 1008.0
20260506071557 43 128 4.0 8.0 0.00 0.00 0.00 62 1008.0
20260506061559 44 127 1.0 6.0 0.00 0.00 0.00 62 1007.5